White Plains, CT

7:44 PM EST on November 17, 2019 (GMT -0500)
Westchester County

Weather History for KHPN - September, 2019

Change the Weather History Date:

Thursday, September 5, 2019

  Actual Average Record
Temperature  
Mean Temperature 66 °F -  
Max Temperature 72 °F 75 °F 93 °F (1983)
Min Temperature 59 °F 58 °F 48 °F (2000)
Growing Degree Days 16 (Base 50)    
Moisture  
Dew Point 55 °F    
Average Humidity 72    
Maximum Humidity 90    
Minimum Humidity 49    
Precipitation  
Precipitation 0.00 in - - ()
Sea Level Pressure  
Sea Level Pressure 30.05 in    
Wind  
Wind Speed 4 mph ()    
Max Wind Speed 9 mph    
Max Gust Speed -    
Visibility 10.0 miles    
Events      
Averages and records for this station are not official NWS values.
T = Trace of Precipitation, MM = Missing Value Source: Averaged Metar Reports

Daily Weather History Graph

Daily Weather History Graph

Search for Another Location

Airport or City:

Astronomy

Sep. 05, 2019 Rise Set
Actual Time 6:25 AM EDT 7:21 PM EDT
Civil Twilight 5:57 AM EDT 7:49 PM EDT
Nautical Twilight 5:23 AM EDT 8:22 PM EDT
Astronomical Twilight 4:48 AM EDT 8:57 PM EDT
Moon 1:32 PM EDT (9/5) 11:31 PM EDT (9/5)
Length of Visible Light 13h 52m
Length of Day
12h 56m
Waxing Crescent, 45% of the Moon is Illuminated
Sep 5
Waxing Crescent
Sep 5
First Quarter
Sep 14
Full
Sep 21
Last Quarter
Sep 28
New

Hourly Weather History & Observations

Time (EDT) Temp. Dew Point Humidity Pressure Visibility Wind Dir Wind Speed Gust Speed Precip Events Conditions
12:56 AM 66.0 °F 59.0 °F 78% 30.01 in 10.0 mi North 9.2 mph - N/A   Clear
1:56 AM 64.0 °F 57.0 °F 78% 30.01 in 10.0 mi North 6.9 mph - N/A   Clear
2:56 AM 63.0 °F 55.9 °F 78% 30.02 in 10.0 mi Calm Calm - N/A   Clear
3:56 AM 59.0 °F 55.9 °F 90% 30.03 in 10.0 mi Calm Calm - N/A   Partly Cloudy
4:56 AM 61.0 °F 54.0 °F 78% 30.04 in 10.0 mi Calm Calm - N/A   Partly Cloudy
5:56 AM 60.1 °F 54.0 °F 80% 30.05 in 10.0 mi North 6.9 mph - N/A   Clear
6:56 AM 59.0 °F 54.0 °F 83% 30.06 in 10.0 mi North 9.2 mph - N/A   Clear
7:56 AM 61.0 °F 54.0 °F 78% 30.07 in 10.0 mi North 8.1 mph - N/A   Clear
8:56 AM 64.0 °F 53.1 °F 67% 30.09 in 10.0 mi North 8.1 mph - N/A   Clear
9:56 AM 66.9 °F 52.0 °F 59% 30.09 in 10.0 mi NNE 9.2 mph - N/A   Partly Cloudy
10:56 AM 68.0 °F 53.1 °F 59% 30.09 in 10.0 mi Variable 5.8 mph - N/A   Clear
11:56 AM 69.1 °F 53.1 °F 57% 30.09 in 10.0 mi East 3.5 mph - N/A   Scattered Clouds
12:56 PM 70.0 °F 54.0 °F 57% 30.09 in 10.0 mi Calm Calm - N/A   Partly Cloudy
1:56 PM 70.0 °F 52.0 °F 53% 30.07 in 10.0 mi Calm Calm - N/A   Partly Cloudy
2:56 PM 72.0 °F 52.0 °F 49% 30.06 in 10.0 mi NNW 3.5 mph - N/A   Partly Cloudy
3:56 PM 69.1 °F 55.9 °F 63% 30.05 in 10.0 mi SE 5.8 mph - N/A   Clear
4:56 PM 69.1 °F 55.9 °F 63% 30.05 in 10.0 mi South 4.6 mph - N/A   Clear
5:56 PM 68.0 °F 57.0 °F 68% 30.04 in 10.0 mi ENE 4.6 mph - N/A   Clear
6:56 PM 64.9 °F 57.9 °F 78% 30.04 in 10.0 mi SSE 3.5 mph - N/A   Clear
7:56 PM 63.0 °F 57.0 °F 81% 30.05 in 10.0 mi Calm Calm - N/A   Clear
8:56 PM 62.1 °F 57.0 °F 84% 30.06 in 10.0 mi Calm Calm - N/A   Clear
9:56 PM 62.1 °F 57.9 °F 86% 30.05 in 10.0 mi Calm Calm - N/A   Clear
10:56 PM 61.0 °F 55.9 °F 83% 30.04 in 10.0 mi WNW 3.5 mph - N/A   Clear
11:56 PM 60.1 °F 55.9 °F 86% 30.03 in 10.0 mi Calm Calm - N/A   Partly Cloudy